Snowfall_Accumulation
0.0 0.0 0.0 0.0 0.0 0.0 0.0 0.0 0.0 0.0 0.0 0.0 0.0 0.0 0.0 0.0 0.0 0.0 0.0 0.0 0.0 0.0 0.0 0.0 0.0 0.0 0.0 0.0 0.0 0.0 0.0 0.0 0.0 0.0 0.0 0.0 0.0 0.0 0.0 0.0 0.0 0.0 0.0
0.0 0.0 0.0 0.0 0.0 0.0 0.0 0.0 0.0 0.0 0.0 0.0 0.0 0.0 0.0 0.0 0.0 0.0 0.0 0.0 0.0 0.0 0.0 0.0 0.0 0.0 0.0 0.0 0.0 0.0 0.0 0.0 0.0 0.0 0.0 0.0 0.0 0.0 0.0 0.0 0.1 0.0 0.0
0.0 0.0 0.0 0.0 0.0 0.0 0.0 0.0 0.0 0.0 0.0 0.0 0.0 0.0 0.0 0.0 0.0 0.0 0.0 0.0 0.0 0.0 0.0 0.0 0.0 0.0 0.0 0.0 0.0 0.0 0.0 0.0 0.0 0.0 0.0 0.0 0.0 0.0 0.0 0.0 0.0 0.1 0.0
0.0 0.0 0.0 0.0 0.0 0.0 0.0 0.0 0.0 0.0 0.0 0.0 0.0 0.0 0.0 0.0 0.0 0.0 0.0 0.0 0.0 0.0 0.0 0.0 0.0 0.0 0.0 0.0 0.0 0.0 0.0 0.0 0.0 0.0 0.0 0.3 0.1 0.0 0.0 0.0 0.4 0.3 0.2
0.0 0.0 0.0 0.0 0.0 0.0 0.0 0.0 0.0 0.0 0.0 0.0 0.0 0.0 0.0 0.0 0.0 0.0 0.0 0.0 0.0 0.0 0.0 0.0 0.0 0.0 0.0 0.0 0.0 0.0 0.0 0.0 0.0 0.0 0.0 0.3 0.0 0.0 0.2 0.1 0.5 0.1 0.2
0.0 0.0 0.0 0.0 0.0 0.0 0.0 0.0 0.0 0.0 0.0 0.0 0.0 0.0 0.0 0.0 0.0 0.0 0.0 0.0 0.0 0.0 0.0 0.0 0.0 0.0 0.0 0.0 0.0 0.0 0.0 0.0 0.0 0.0 0.4 0.5 0.0 0.4 0.3 0.6 0.5 0.6 0.2
0.0 0.0 0.0 0.0 0.0 0.0 0.0 0.0 0.0 0.0 0.0 0.0 0.0 0.0 0.0 0.0 0.0 0.0 0.0 0.0 0.0 0.0 0.0 0.0 0.0 0.0 0.0 0.0 0.0 0.0 0.0 0.0 0.0 0.2 0.0 0.0 0.6 0.8 0.7 0.7 0.0 0.1 0.0
0.0 0.0 0.0 0.0 0.0 0.0 0.0 0.0 0.0 0.0 0.0 0.0 0.0 0.0 0.0 0.0 0.0 0.0 0.0 0.0 0.0 0.0 0.0 0.0 0.0 0.0 0.0 0.0 0.0 0.0 0.0 0.0 0.0 0.1 0.0 0.0 0.0 0.0 0.5 0.0 0.0 0.1 0.0
0.0 0.0 0.0 0.0 0.0 0.0 0.0 0.0 0.0 0.0 0.0 0.0 0.0 0.0 0.0 0.0 0.0 0.0 0.0 0.0 0.0 0.0 0.0 0.0 0.0 0.0 0.0 0.0 0.0 0.6 0.0 0.5 0.0 0.0 0.0 0.0 0.0 0.2 0.0 0.0 0.1 0.0 0.0
0.0 0.0 0.0 0.0 0.0 0.0 0.0 0.0 0.0 0.0 0.0 0.0 0.0 0.0 0.0 0.0 0.0 0.0 0.0 0.0 0.0 0.0 0.0 0.0 0.0 0.0 0.0 0.0 0.5 0.0 0.4 0.3 0.9 1.2 1.0 0.6 0.3 0.0 0.0 0.0 0.0 0.0 0.0
0.0 0.0 0.0 0.0 0.0 0.0 0.0 0.0 0.0 0.0 0.0 0.0 0.0 0.0 0.0 0.0 0.0 0.0 0.0 0.0 0.0 0.0 0.0 0.0 0.2 0.1 0.0 1.2 0.8 0.0 0.7 0.2 1.0 0.5 0.0 0.2 0.0 0.2 0.0 0.0 0.0 0.0 0.0
0.0 0.0 0.0 0.0 0.0 0.0 0.0 0.0 0.0 0.0 0.0 0.0 0.0 0.0 0.0 0.0 0.0 0.0 0.0 0.0 0.0 0.0 0.0 0.5 0.3 0.2 1.2 0.1 0.8 0.6 0.6 0.5 0.2 0.2 0.3 0.4 0.0 0.1 0.0 0.0 0.0 0.0 0.0
0.0 0.0 0.0 0.0 0.0 0.0 0.0 0.0 0.0 0.0 0.0 0.0 0.0 0.0 0.0 0.0 0.0 0.0 0.0 0.0 0.0 0.0 1.4 1.1 0.7 1.1 0.9 0.2 0.6 0.1 0.2 0.0 0.3 0.4 0.2 0.4 0.3 0.0 0.0 0.0 0.0 0.3 0.3
0.0 0.0 0.0 0.0 0.0 0.0 0.0 0.0 0.0 0.0 0.0 0.0 0.0 0.0 0.0 0.0 0.0 0.0 0.0 0.0 0.0 1.0 1.0 0.8 0.5 0.0 0.2 0.1 0.0 0.1 0.1 0.3 0.4 0.1 0.0 0.1 0.0 0.0 0.2 0.0 0.6 0.5 0.6
0.0 0.0 0.1 0.0 0.0 0.1 0.0 0.1 0.0 0.0 0.0 0.0 0.0 0.0 0.0 0.0 0.0 0.0 0.0 0.0 0.0 0.0 0.2 0.1 0.1 0.1 0.0 0.0 0.3 0.6 0.5 0.4 0.1 0.0 0.2 0.0 0.0 0.4 0.3 0.3 0.7 0.7 0.8
0.1 0.0 0.2 0.2 0.1 0.1 0.1 0.2 0.3 0.3 0.3 0.2 0.2 0.1 0.1 0.1 0.1 0.1 0.1 0.1 0.3 0.1 0.3 0.4 0.5 0.6 0.6 0.5 0.6 0.0 0.3 0.2 0.2 0.6 0.5 0.4 0.6 0.6 0.5 0.3 0.5 0.4 0.7
0.3 0.1 0.4 0.5 0.3 0.3 0.3 0.3 0.2 0.5 0.4 0.4 0.3 0.2 0.2 0.2 0.2 0.2 0.2 0.2 0.2 0.5 0.0 0.0 0.0 0.1 0.1 0.0 0.0 0.4 0.4 0.3 0.7 0.7 0.4 0.3 0.6 0.6 0.5 0.2 0.3 0.4 0.4
0.3 0.9 0.9 1.0 1.0 1.1 1.1 1.1 1.0 0.9 0.9 0.9 0.8 0.7 0.6 0.5 0.4 0.2 0.2 0.1 0.3 0.3 0.1 0.0 0.0 0.0 0.0 0.0 0.7 0.6 0.4 0.7 0.7 0.6 0.6 0.6 0.6 0.7 0.5 0.2 0.3 0.3 0.2
2.5 2.4 2.5 2.7 2.8 2.7 2.5 2.1 1.8 1.6 1.5 1.5 1.3 1.0 0.8 0.5 0.3 0.3 0.3 0.2 0.1 0.1 0.1 0.1 0.1 0.1 0.8 0.7 0.5 0.7 0.6 0.6 0.6 0.5 0.3 0.3 0.4 0.5 0.3 0.1 0.4 0.4 0.6
3.9 4.1 3.9 3.7 3.5 3.2 3.0 2.6 2.3 2.1 1.9 1.6 1.4 1.2 0.8 0.5 0.3 0.3 0.3 0.2 0.1 0.1 0.2 0.4 0.5 0.5 0.6 0.6 0.6 0.6 0.5 0.4 0.4 0.4 0.3 0.5 0.4 0.5 0.3 0.3 0.4 0.4 0.3
3.7 3.8 3.8 3.6 3.5 3.3 3.1 2.7 2.4 2.0 1.6 1.3 1.1 1.1 0.8 0.5 0.4 0.5 0.3 0.5 0.6 0.6 0.7 0.7 0.6 0.5 0.4 0.4 0.3 0.4 0.5 0.4 0.5 0.5 0.5 0.4 0.6 0.5 0.4 0.5 0.4 0.3 0.4
2.7 2.6 2.6 2.6 2.5 2.3 2.2 2.0 1.9 1.8 1.9 1.9 2.0 1.9 1.7 1.4 1.2 1.1 0.9 0.7 0.5 0.5 0.3 0.3 0.1 0.1 0.2 0.2 0.3 0.3 0.3 0.3 0.4 0.6 0.6 0.5 0.5 0.6 0.6 0.6 0.5 0.6 0.5
3.0 3.0 3.0 3.1 3.1 3.2 3.2 3.0 2.7 2.4 2.0 1.6 1.3 1.0 0.8 0.7 0.6 0.5 0.5 0.4 0.4 0.3 0.2 0.2 0.2 0.1 0.1 0.0 0.1 0.2 0.2 0.0 0.3 0.4 0.3 0.4 0.5 0.5 0.6 0.6 0.6 0.6 0.7
3.9 3.6 3.3 2.8 2.4 1.9 1.6 1.4 1.2 1.1 1.0 0.9 0.8 0.8 0.7 0.6 0.5 0.4 0.2 0.1 0.1 0.0 0.0 0.0 0.0 0.0 0.0 0.0 0.0 0.1 0.1 0.2 0.2 0.2 0.3 0.3 0.3 0.3 0.5 0.5 0.4 0.6 0.7
1.4 1.7 1.5 1.4 1.2 1.1 0.9 0.8 0.7 0.5 0.4 0.3 0.2 0.1 0.0 0.0 0.0 0.0 0.0 0.0 0.0 0.0 0.0 0.0 0.0 0.0 0.0 0.0 0.0 0.0 0.0 0.1 0.1 0.0 0.3 0.3 0.2 0.2 0.3 0.4 0.4 0.5 0.5
0.4 0.3 0.3 0.2 0.1 0.1 0.1 0.0 0.1 0.0 0.0 0.0 0.0 0.0 0.0 0.0 0.0 0.0 0.0 0.0 0.0 0.0 0.0 0.0 0.0 0.0 0.0 0.0 0.0 0.0 0.0 0.0 0.1 0.1 0.2 0.2 0.2 0.1 0.3 0.4 0.3 0.4 0.3